• In Netherlands
  • List of Countries
  • For 7 days
  • Water Temperature
  • Satellite Maps
  • Weather Map
  • Weather Widgets
  • user-avatar
    Login

    Hourly Weather Vitebsk

    Today, 21 August, Monday

    Time Temperature Precipitation Wind Pressure Humidity
    00:00 +22°C° 0 mm 5 mps 746 mmHg 52%
    01:00 +21°C° 0 mm 5 mps 746 mmHg 54%
    02:00 +21°C° 0 mm 4 mps 746 mmHg 56%
    03:00 +20°C° 0 mm 4 mps 746 mmHg 57%
    04:00 +20°C° 0 mm 4 mps 746 mmHg 59%
    05:00 +20°C° 0 mm 4 mps 745 mmHg 60%
    06:00 +20°C° 0 mm 3 mps 745 mmHg 64%
    07:00 +19°C° 0 mm 3 mps 745 mmHg 68%
    08:00 +19°C° 0 mm 3 mps 745 mmHg 71%
    09:00 +20°C° 0.1 mm 3 mps 746 mmHg 72%
    10:00 +20°C° 0.1 mm 2 mps 746 mmHg 74%
    11:00 +21°C° 0.1 mm 2 mps 746 mmHg 75%
    12:00 +20°C° 0.1 mm 2 mps 746 mmHg 76%
    13:00 +21°C° 0.1 mm 1 mps 746 mmHg 78%
    14:00 +21°C° 0.1 mm 1 mps 746 mmHg 79%
    15:00 +20°C° 0.3 mm 2 mps 745 mmHg 80%
    16:00 +20°C° 0.3 mm 2 mps 745 mmHg 80%
    17:00 +20°C° 0.3 mm 2 mps 745 mmHg 81%
    18:00 +19°C° 0.6 mm 2 mps 745 mmHg 86%
    19:00 +18°C° 0.6 mm 2 mps 745 mmHg 91%
    20:00 +16°C° 0.6 mm 2 mps 745 mmHg 96%
    21:00 +16°C° 0.7 mm 2 mps 745 mmHg 97%
    22:00 +16°C° 0.7 mm 3 mps 745 mmHg 97%
    23:00 +16°C° 0.7 mm 3 mps 745 mmHg 97%

    Tomorrow, 22 August, Tuesday

    Time Temperature Precipitation Wind Pressure Humidity
    00:00 +16°C° 1.1 mm 3 mps 745 mmHg 97%
    01:00 +16°C° 1.1 mm 2 mps 745 mmHg 97%
    02:00 +16°C° 1.1 mm 2 mps 744 mmHg 97%
    03:00 +16°C° 0.3 mm 2 mps 744 mmHg 97%
    04:00 +16°C° 0.3 mm 2 mps 744 mmHg 97%
    05:00 +16°C° 0.3 mm 2 mps 744 mmHg 97%
    06:00 +16°C° 0.3 mm 2 mps 744 mmHg 97%
    07:00 +16°C° 0.3 mm 2 mps 744 mmHg 96%
    08:00 +17°C° 0.3 mm 2 mps 744 mmHg 95%
    09:00 +17°C° 0.8 mm 2 mps 744 mmHg 94%
    10:00 +17°C° 0.8 mm 3 mps 744 mmHg 93%
    11:00 +17°C° 0.8 mm 3 mps 744 mmHg 92%
    12:00 +17°C° 0.7 mm 3 mps 744 mmHg 91%
    13:00 +17°C° 0.7 mm 3 mps 743 mmHg 90%
    14:00 +18°C° 0.7 mm 3 mps 743 mmHg 89%
    15:00 +17°C° 0.5 mm 3 mps 743 mmHg 90%
    16:00 +17°C° 0.5 mm 3 mps 743 mmHg 91%
    17:00 +16°C° 0.5 mm 3 mps 743 mmHg 92%
    18:00 +16°C° 0.3 mm 3 mps 743 mmHg 93%
    19:00 +14°C° 0.3 mm 3 mps 743 mmHg 94%
    20:00 +14°C° 0.3 mm 3 mps 743 mmHg 96%
    21:00 +13°C° 0.1 mm 3 mps 742 mmHg 96%
    22:00 +13°C° 0.1 mm 3 mps 742 mmHg 96%
    23:00 +13°C° 0.1 mm 4 mps 742 mmHg 96%

    Day after tomorrow, 23 August, Wednesday

    Time Temperature Precipitation Wind Pressure Humidity
    00:00 +12°C° 0.4 mm 4 mps 742 mmHg 96%
    01:00 +12°C° 0.4 mm 4 mps 741 mmHg 96%
    02:00 +12°C° 0.4 mm 4 mps 741 mmHg 96%
    03:00 +12°C° 0.7 mm 4 mps 741 mmHg 96%
    04:00 +12°C° 0.7 mm 5 mps 740 mmHg 96%
    05:00 +12°C° 0.7 mm 5 mps 740 mmHg 96%
    06:00 +12°C° 0.8 mm 5 mps 740 mmHg 95%
    07:00 +12°C° 0.8 mm 5 mps 740 mmHg 95%
    08:00 +12°C° 0.8 mm 5 mps 739 mmHg 95%
    09:00 +11°C° 1.9 mm 6 mps 739 mmHg 95%
    10:00 +13°C° 1.9 mm 6 mps 739 mmHg 95%
    11:00 +13°C° 1.9 mm 6 mps 739 mmHg 95%
    12:00 +13°C° 2.2 mm 6 mps 739 mmHg 95%
    13:00 +13°C° 2.2 mm 6 mps 739 mmHg 95%
    14:00 +13°C° 2.2 mm 6 mps 739 mmHg 95%
    15:00 +13°C° 1.1 mm 6 mps 739 mmHg 95%
    16:00 +13°C° 1.1 mm 6 mps 739 mmHg 95%
    17:00 +13°C° 1.1 mm 6 mps 739 mmHg 95%
    18:00 +14°C° 1.5 mm 6 mps 739 mmHg 95%
    19:00 +14°C° 1.5 mm 6 mps 739 mmHg 95%
    20:00 +14°C° 1.5 mm 6 mps 739 mmHg 96%
    21:00 +14°C° 1.9 mm 6 mps 739 mmHg 95%
    22:00 +14°C° 1.9 mm 6 mps 738 mmHg 95%
    23:00 +14°C° 1.9 mm 6 mps 738 mmHg 95%

    24 August, Thursday

    Time Temperature Precipitation Wind Pressure Humidity
    00:00 +14°C° 0.7 mm 7 mps 738 mmHg 95%
    01:00 +14°C° 0.7 mm 7 mps 737 mmHg 95%
    02:00 +14°C° 0.7 mm 7 mps 737 mmHg 95%
    03:00 +14°C° 1 mm 7 mps 737 mmHg 95%
    04:00 +14°C° 1 mm 7 mps 737 mmHg 95%
    05:00 +14°C° 1 mm 7 mps 736 mmHg 95%
    06:00 +14°C° 1.1 mm 7 mps 736 mmHg 95%
    07:00 +14°C° 1.1 mm 7 mps 736 mmHg 94%
    08:00 +13°C° 1.1 mm 8 mps 736 mmHg 94%
    09:00 +13°C° 2.4 mm 8 mps 736 mmHg 94%
    10:00 +13°C° 2.4 mm 8 mps 737 mmHg 94%
    11:00 +14°C° 2.4 mm 7 mps 737 mmHg 94%
    12:00 +15°C° 1.6 mm 7 mps 737 mmHg 94%
    13:00 +15°C° 1.6 mm 6 mps 738 mmHg 93%
    14:00 +15°C° 1.6 mm 5 mps 739 mmHg 92%
    15:00 +15°C° 0.5 mm 5 mps 739 mmHg 93%
    16:00 +15°C° 0.5 mm 5 mps 739 mmHg 93%
    17:00 +14°C° 0.5 mm 5 mps 740 mmHg 94%
    18:00 +14°C° 0.3 mm 5 mps 740 mmHg 94%
    19:00 +14°C° 0.3 mm 5 mps 741 mmHg 95%
    20:00 +14°C° 0.3 mm 5 mps 741 mmHg 95%
    21:00 +13°C° 0.1 mm 5 mps 741 mmHg 94%
    22:00 +13°C° 0.1 mm 5 mps 741 mmHg 94%
    23:00 +13°C° 0.1 mm 5 mps 742 mmHg 93%

    25 August, Friday

    Time Temperature Precipitation Wind Pressure Humidity
    00:00 +12°C° 0.1 mm 5 mps 742 mmHg 92%
    01:00 +12°C° 0.1 mm 5 mps 742 mmHg 92%
    02:00 +10°C° 0.1 mm 5 mps 743 mmHg 91%
    03:00 +11°C° 0 mm 4 mps 743 mmHg 92%
    04:00 +10°C° 0 mm 4 mps 744 mmHg 92%
    05:00 +8°C° 0 mm 4 mps 744 mmHg 92%
    06:00 +10°C° 0 mm 4 mps 745 mmHg 90%
    07:00 +11°C° 0 mm 4 mps 745 mmHg 87%
    08:00 +12°C° 0 mm 4 mps 746 mmHg 84%
    09:00 +14°C° 0 mm 4 mps 746 mmHg 77%
    10:00 +17°C° 0 mm 4 mps 746 mmHg 69%
    11:00 +18°C° 0 mm 4 mps 747 mmHg 62%
    12:00 +19°C° 0 mm 4 mps 747 mmHg 60%
    13:00 +20°C° 0 mm 4 mps 747 mmHg 58%
    14:00 +21°C° 0 mm 4 mps 748 mmHg 56%
    15:00 +21°C° 0 mm 3 mps 748 mmHg 59%
    16:00 +21°C° 0 mm 3 mps 748 mmHg 63%
    17:00 +21°C° 0 mm 2 mps 748 mmHg 67%
    18:00 +19°C° 0 mm 2 mps 748 mmHg 73%
    19:00 +17°C° 0 mm 2 mps 748 mmHg 78%
    20:00 +15°C° 0 mm 2 mps 749 mmHg 83%
    21:00 +14°C° 0 mm 2 mps 749 mmHg 84%
    22:00 +14°C° 0 mm 2 mps 749 mmHg 86%
    23:00 +14°C° 0 mm 2 mps 749 mmHg 87%

    26 August, Saturday

    Time Temperature Precipitation Wind Pressure Humidity
    00:00 +13°C° 0 mm 2 mps 749 mmHg 87%
    01:00 +13°C° 0 mm 2 mps 749 mmHg 88%
    02:00 +13°C° 0 mm 2 mps 749 mmHg 89%
    03:00 +14°C° 0 mm 2 mps 749 mmHg 87%
    04:00 +14°C° 0 mm 2 mps 749 mmHg 86%
    05:00 +13°C° 0 mm 3 mps 749 mmHg 85%
    06:00 +14°C° 0 mm 3 mps 749 mmHg 84%
    07:00 +16°C° 0 mm 3 mps 749 mmHg 82%
    08:00 +17°C° 0 mm 3 mps 749 mmHg 81%
    09:00 +19°C° 0 mm 3 mps 749 mmHg 79%
    10:00 +20°C° 0 mm 3 mps 749 mmHg 76%
    11:00 +22°C° 0 mm 3 mps 749 mmHg 74%
    12:00 +22°C° 0 mm 3 mps 749 mmHg 70%
    13:00 +24°C° 0 mm 3 mps 749 mmHg 67%
    14:00 +25°C° 0 mm 3 mps 749 mmHg 64%
    15:00 +24°C° 0 mm 3 mps 749 mmHg 67%
    16:00 +24°C° 0 mm 2 mps 749 mmHg 70%
    17:00 +23°C° 0 mm 2 mps 749 mmHg 74%
    18:00 +22°C° 0 mm 1 mps 749 mmHg 78%
    19:00 +21°C° 0 mm 1 mps 748 mmHg 82%
    20:00 +19°C° 0 mm 1 mps 748 mmHg 86%
    21:00 +19°C° 0 mm 1 mps 748 mmHg 87%
    22:00 +18°C° 0 mm 1 mps 748 mmHg 89%
    23:00 +18°C° 0 mm 1 mps 748 mmHg 91%
    Show more